Location: Arrien
(42.8963°N, 1.0429°E)
Time: 19:18:59
(UTC+00:00)

PCSat - Visible Passes

Search period start: 15 April 2026 00:00
Search period end: 25 April 2026 00:00
Orbit: 781 x 790 km, 67.1° (Epoch: 15 April)

Date Brightness Start Highest point End Pass type
(mag) Time Alt. Az. Time Alt. Az. Time Alt. Az.
15 Apr 11.2 22:44:34 10° NNW 22:48:00 29° NNE 22:48:00 29° NNE visible
16 Apr 12.0 00:27:48 10° NW 00:28:36 14° NW 00:28:36 14° NW visible
16 Apr 11.2 22:12:25 10° N 22:16:23 25° NE 22:16:23 25° NE visible
16 Apr 11.7 23:55:16 10° NW 23:56:59 20° NW 23:56:59 20° NW visible
17 Apr 11.4 21:40:21 10° N 21:44:19 20° NE 21:44:47 20° NE visible
17 Apr 11.2 23:22:48 10° NNW 23:25:23 29° NW 23:25:23 29° NW visible
18 Apr 11.6 21:08:25 10° N 21:11:39 16° NE 21:13:12 14° ENE visible
18 Apr 10.8 22:50:26 10° NNW 22:53:48 39° NNW 22:53:48 39° NNW visible
19 Apr 11.8 20:36:42 10° N 20:38:56 12° NE 20:41:11 10° ENE visible
19 Apr 10.4 22:18:07 10° NNW 22:22:15 46° N 22:22:15 46° N visible
20 Apr 12.1 00:02:17 10° WNW 00:02:51 12° WNW 00:02:51 12° WNW visible
20 Apr 10.4 21:45:53 10° NNW 21:50:44 41° NE 21:50:44 41° NE visible
20 Apr 11.6 23:29:27 10° NW 23:31:20 19° WNW 23:31:20 19° WNW visible
21 Apr 10.7 21:13:42 10° NNW 21:18:29 31° NE 21:19:14 30° ENE visible
21 Apr 11.1 22:56:48 10° NW 22:59:50 30° WNW 22:59:50 30° WNW visible
22 Apr 11.1 20:41:34 10° N 20:45:55 24° NE 20:47:45 20° ENE visible
22 Apr 10.3 22:24:17 10° NW 22:28:22 48° WNW 22:28:22 48° WNW visible
23 Apr 11.4 20:09:33 10° N 20:13:17 19° NE 20:16:19 12° ENE visible
23 Apr 9.6 21:51:51 10° NNW 21:56:56 78° NW 21:56:56 78° NW visible
24 Apr 11.6 19:37:39 10° N 19:40:36 15° NE 19:43:32 10° ENE visible
24 Apr 9.5 21:19:30 10° NNW 21:24:55 69° ENE 21:25:31 63° E visible
24 Apr 11.8 23:04:11 10° WNW 23:06:08 16° W 23:06:08 16° W visible
